When you browse on this site, cookies collect data to enhance your experience and personalize the content and advertising you see.
Visit our Privacy Policy to learn more. By continuing to use the site, you agree to this use of cookies and data.
  • în România
  • Lista ţărilor
  • Pe 7 zile
  • Temperatura apei
  • Hartă satelitară
  • Meteo pe hartă
  • Widget-uri
  • user-avatar
    Intrare

    Meteo pe oră la Dzierzkow

    Astăzi, 25 Mai, Sâmbătă

    Timp Temperatura Precipitaţii Vânt Presiune Umiditate
    00:00 +13°C° 0 mm 2 m/s 739 mmHg 72%
    01:00 +12°C° 0 mm 2 m/s 739 mmHg 74%
    02:00 +12°C° 0 mm 2 m/s 739 mmHg 76%
    03:00 +12°C° 0 mm 2 m/s 739 mmHg 79%
    04:00 +12°C° 0 mm 2 m/s 739 mmHg 82%
    05:00 +14°C° 0 mm 2 m/s 739 mmHg 79%
    06:00 +15°C° 0 mm 2 m/s 739 mmHg 76%
    07:00 +17°C° 0 mm 3 m/s 739 mmHg 74%
    08:00 +18°C° 0.4 mm 3 m/s 739 mmHg 73%
    09:00 +19°C° 0.4 mm 3 m/s 740 mmHg 72%
    10:00 +19°C° 0.4 mm 3 m/s 740 mmHg 72%
    11:00 +20°C° 0.7 mm 3 m/s 740 mmHg 71%
    12:00 +20°C° 0.7 mm 3 m/s 740 mmHg 70%
    13:00 +20°C° 0.7 mm 3 m/s 740 mmHg 69%
    14:00 +20°C° 0.6 mm 3 m/s 739 mmHg 71%
    15:00 +20°C° 0.6 mm 3 m/s 739 mmHg 72%
    16:00 +20°C° 0.6 mm 3 m/s 739 mmHg 73%
    17:00 +19°C° 0.2 mm 2 m/s 739 mmHg 76%
    18:00 +18°C° 0.2 mm 2 m/s 739 mmHg 79%
    19:00 +17°C° 0.2 mm 2 m/s 739 mmHg 82%
    20:00 +15°C° 0 mm 2 m/s 740 mmHg 85%
    21:00 +14°C° 0 mm 2 m/s 740 mmHg 87%
    22:00 +12°C° 0 mm 2 m/s 740 mmHg 90%
    23:00 +10°C° 0 mm 2 m/s 740 mmHg 91%

    Mâine, 26 Mai, Duminică

    Timp Temperatura Precipitaţii Vânt Presiune Umiditate
    00:00 +10°C° 0 mm 2 m/s 740 mmHg 92%
    01:00 +9°C° 0 mm 2 m/s 740 mmHg 94%
    02:00 +10°C° 0 mm 1 m/s 740 mmHg 94%
    03:00 +9°C° 0 mm 1 m/s 740 mmHg 94%
    04:00 +9°C° 0 mm 1 m/s 740 mmHg 94%
    05:00 +11°C° 0 mm 1 m/s 740 mmHg 89%
    06:00 +13°C° 0 mm 1 m/s 740 mmHg 85%
    07:00 +14°C° 0 mm 2 m/s 740 mmHg 81%
    08:00 +16°C° 0 mm 2 m/s 740 mmHg 73%
    09:00 +18°C° 0 mm 2 m/s 740 mmHg 65%
    10:00 +19°C° 0 mm 3 m/s 740 mmHg 58%
    11:00 +20°C° 0 mm 3 m/s 740 mmHg 57%
    12:00 +21°C° 0 mm 3 m/s 739 mmHg 56%
    13:00 +21°C° 0 mm 4 m/s 739 mmHg 55%
    14:00 +21°C° 0.1 mm 4 m/s 738 mmHg 57%
    15:00 +22°C° 0.1 mm 4 m/s 738 mmHg 59%
    16:00 +22°C° 0.1 mm 4 m/s 738 mmHg 60%
    17:00 +21°C° 0.1 mm 3 m/s 738 mmHg 66%
    18:00 +19°C° 0.1 mm 3 m/s 738 mmHg 72%
    19:00 +18°C° 0.1 mm 2 m/s 738 mmHg 78%
    20:00 +17°C° 0 mm 2 m/s 738 mmHg 80%
    21:00 +16°C° 0 mm 2 m/s 738 mmHg 83%
    22:00 +14°C° 0 mm 2 m/s 738 mmHg 85%
    23:00 +14°C° 0 mm 2 m/s 738 mmHg 85%

    Poimâine, 27 Mai, Luni

    Timp Temperatura Precipitaţii Vânt Presiune Umiditate
    00:00 +14°C° 0 mm 2 m/s 738 mmHg 86%
    01:00 +14°C° 0 mm 2 m/s 737 mmHg 86%
    02:00 +12°C° 0 mm 3 m/s 737 mmHg 86%
    03:00 +12°C° 0 mm 3 m/s 737 mmHg 87%
    04:00 +12°C° 0 mm 3 m/s 737 mmHg 88%
    05:00 +14°C° 0 mm 4 m/s 737 mmHg 83%
    06:00 +17°C° 0 mm 4 m/s 737 mmHg 77%
    07:00 +18°C° 0 mm 4 m/s 737 mmHg 72%
    08:00 +20°C° 0 mm 4 m/s 737 mmHg 67%
    09:00 +21°C° 0 mm 4 m/s 737 mmHg 61%
    10:00 +22°C° 0 mm 4 m/s 737 mmHg 56%
    11:00 +23°C° 0 mm 4 m/s 736 mmHg 55%
    12:00 +25°C° 0 mm 5 m/s 736 mmHg 54%
    13:00 +25°C° 0 mm 5 m/s 736 mmHg 53%
    14:00 +25°C° 0.5 mm 5 m/s 736 mmHg 59%
    15:00 +23°C° 0.5 mm 5 m/s 736 mmHg 64%
    16:00 +22°C° 0.5 mm 4 m/s 735 mmHg 69%
    17:00 +21°C° 0.7 mm 3 m/s 735 mmHg 76%
    18:00 +20°C° 0.7 mm 3 m/s 735 mmHg 82%
    19:00 +18°C° 0.7 mm 2 m/s 735 mmHg 89%
    20:00 +18°C° 0.2 mm 1 m/s 735 mmHg 90%
    21:00 +16°C° 0.2 mm 1 m/s 735 mmHg 91%
    22:00 +14°C° 0.2 mm 0 m/s 736 mmHg 92%
    23:00 +14°C° 0 mm 0 m/s 735 mmHg 93%

    28 Mai, Marţi

    Timp Temperatura Precipitaţii Vânt Presiune Umiditate
    00:00 +15°C° 0 mm 1 m/s 735 mmHg 94%
    01:00 +14°C° 0 mm 1 m/s 735 mmHg 94%
    02:00 +14°C° 0.6 mm 1 m/s 735 mmHg 95%
    03:00 +14°C° 0.6 mm 1 m/s 735 mmHg 97%
    04:00 +14°C° 0.6 mm 1 m/s 734 mmHg 98%
    05:00 +14°C° 2.4 mm 1 m/s 734 mmHg 98%
    06:00 +14°C° 2.4 mm 2 m/s 734 mmHg 98%
    07:00 +14°C° 2.4 mm 2 m/s 734 mmHg 98%
    08:00 +13°C° 2.9 mm 3 m/s 734 mmHg 98%
    09:00 +13°C° 2.9 mm 3 m/s 734 mmHg 97%
    10:00 +13°C° 2.9 mm 4 m/s 734 mmHg 97%
    11:00 +12°C° 1.8 mm 4 m/s 734 mmHg 97%
    12:00 +12°C° 1.8 mm 4 m/s 734 mmHg 96%
    13:00 +12°C° 1.8 mm 5 m/s 734 mmHg 95%
    14:00 +12°C° 0.7 mm 5 m/s 734 mmHg 95%
    15:00 +12°C° 0.7 mm 5 m/s 734 mmHg 96%
    16:00 +10°C° 0.7 mm 5 m/s 734 mmHg 96%
    17:00 +10°C° 0.8 mm 5 m/s 735 mmHg 96%
    18:00 +11°C° 0.8 mm 4 m/s 735 mmHg 96%
    19:00 +11°C° 0.8 mm 4 m/s 736 mmHg 97%
    20:00 +11°C° 0.4 mm 4 m/s 736 mmHg 97%
    21:00 +11°C° 0.4 mm 4 m/s 737 mmHg 96%
    22:00 +11°C° 0.4 mm 4 m/s 737 mmHg 96%
    23:00 +11°C° 0.3 mm 4 m/s 738 mmHg 96%

    29 Mai, Miercuri

    Timp Temperatura Precipitaţii Vânt Presiune Umiditate
    00:00 +11°C° 0.3 mm 4 m/s 738 mmHg 97%
    01:00 +10°C° 0.3 mm 5 m/s 738 mmHg 97%
    02:00 +9°C° 0.1 mm 5 m/s 739 mmHg 95%
    03:00 +8°C° 0.1 mm 4 m/s 739 mmHg 94%
    04:00 +7°C° 0.1 mm 4 m/s 740 mmHg 93%
    05:00 +7°C° 0 mm 4 m/s 741 mmHg 90%
    06:00 +7°C° 0 mm 4 m/s 741 mmHg 87%
    07:00 +8°C° 0 mm 5 m/s 742 mmHg 85%
    08:00 +9°C° 0 mm 5 m/s 742 mmHg 79%
    09:00 +10°C° 0 mm 5 m/s 743 mmHg 73%
    10:00 +12°C° 0 mm 5 m/s 743 mmHg 66%
    11:00 +12°C° 0 mm 5 m/s 743 mmHg 64%
    12:00 +13°C° 0 mm 5 m/s 744 mmHg 62%
    13:00 +14°C° 0 mm 4 m/s 744 mmHg 60%
    14:00 +14°C° 0 mm 4 m/s 744 mmHg 59%
    15:00 +14°C° 0 mm 4 m/s 744 mmHg 58%
    16:00 +14°C° 0 mm 4 m/s 745 mmHg 58%
    17:00 +14°C° 0 mm 3 m/s 745 mmHg 63%
    18:00 +14°C° 0 mm 2 m/s 745 mmHg 68%
    19:00 +13°C° 0 mm 2 m/s 746 mmHg 73%
    20:00 +12°C° 0 mm 2 m/s 746 mmHg 75%
    21:00 +10°C° 0 mm 1 m/s 747 mmHg 76%
    22:00 +9°C° 0 mm 1 m/s 747 mmHg 78%
    23:00 +9°C° 0 mm 1 m/s 747 mmHg 81%

    30 Mai, Joi

    Timp Temperatura Precipitaţii Vânt Presiune Umiditate
    00:00 +8°C° 0 mm 1 m/s 748 mmHg 84%
    01:00 +7°C° 0 mm 1 m/s 748 mmHg 87%
    02:00 +5°C° 0 mm 0 m/s 748 mmHg 87%
    03:00 +5°C° 0 mm 0 m/s 748 mmHg 87%
    04:00 +5°C° 0 mm 0 m/s 748 mmHg 87%
    05:00 +7°C° 0 mm 0 m/s 748 mmHg 81%
    06:00 +9°C° 0 mm 0 m/s 748 mmHg 75%
    07:00 +11°C° 0 mm 0 m/s 748 mmHg 69%
    08:00 +12°C° 0 mm 0 m/s 748 mmHg 65%
    09:00 +15°C° 0 mm 1 m/s 748 mmHg 60%
    10:00 +16°C° 0 mm 1 m/s 747 mmHg 55%
    11:00 +18°C° 0 mm 1 m/s 747 mmHg 53%
    12:00 +19°C° 0 mm 1 m/s 746 mmHg 51%
    13:00 +18°C° 0 mm 0 m/s 746 mmHg 49%
    14:00 +20°C° 0 mm 1 m/s 746 mmHg 50%
    15:00 +20°C° 0 mm 1 m/s 745 mmHg 51%
    16:00 +20°C° 0 mm 1 m/s 745 mmHg 53%
    17:00 +19°C° 0 mm 1 m/s 745 mmHg 59%
    18:00 +16°C° 0 mm 1 m/s 744 mmHg 66%
    19:00 +15°C° 0 mm 2 m/s 744 mmHg 73%
    20:00 +14°C° 0 mm 2 m/s 744 mmHg 75%
    21:00 +13°C° 0 mm 2 m/s 744 mmHg 77%
    22:00 +10°C° 0 mm 2 m/s 744 mmHg 78%
    23:00 +10°C° 0 mm 3 m/s 744 mmHg 75%
    Arată mai mult